When you browse on this site, cookies collect data to enhance your experience and personalize the content and advertising you see.
Visit our Privacy Policy to learn more. By continuing to use the site, you agree to this use of cookies and data.
  • En España
  • Lista de países
  • Para 7 días
  • Temperatura del agua
  • El tiempo en el mapa
  • Informadores
  • user-avatar
    Iniciar sesión

    Tiempo cada hora Oran

    Hoy, 3 Junio, Miércoles

    Tiempo Temperatura Precipitaciones Viento Presión Humedad
    00:00 +21°C° 0 mm 2 mps 749 mmHg 81%
    01:00 +21°C° 0 mm 2 mps 749 mmHg 83%
    02:00 +21°C° 0 mm 2 mps 749 mmHg 85%
    03:00 +20°C° 0 mm 2 mps 749 mmHg 87%
    04:00 +20°C° 0 mm 2 mps 748 mmHg 85%
    05:00 +21°C° 0 mm 2 mps 748 mmHg 82%
    06:00 +21°C° 0 mm 2 mps 748 mmHg 80%
    07:00 +22°C° 0 mm 3 mps 748 mmHg 70%
    08:00 +25°C° 0 mm 3 mps 749 mmHg 60%
    09:00 +27°C° 0 mm 3 mps 749 mmHg 50%
    10:00 +27°C° 0 mm 4 mps 748 mmHg 47%
    11:00 +28°C° 0 mm 4 mps 748 mmHg 44%
    12:00 +29°C° 0 mm 5 mps 748 mmHg 41%
    13:00 +29°C° 0 mm 5 mps 748 mmHg 40%
    14:00 +30°C° 0 mm 5 mps 747 mmHg 39%
    15:00 +30°C° 0 mm 5 mps 747 mmHg 38%
    16:00 +29°C° 0 mm 5 mps 747 mmHg 41%
    17:00 +28°C° 0 mm 6 mps 746 mmHg 43%
    18:00 +28°C° 0 mm 6 mps 746 mmHg 45%
    19:00 +27°C° 0 mm 6 mps 746 mmHg 46%
    20:00 +26°C° 0 mm 5 mps 746 mmHg 47%
    21:00 +26°C° 0 mm 5 mps 746 mmHg 47%
    22:00 +26°C° 0 mm 6 mps 746 mmHg 46%
    23:00 +26°C° 0 mm 6 mps 746 mmHg 44%

    Mañana, 4 Junio, Jueves

    Tiempo Temperatura Precipitaciones Viento Presión Humedad
    00:00 +26°C° 0 mm 6 mps 746 mmHg 42%
    01:00 +24°C° 0 mm 7 mps 746 mmHg 43%
    02:00 +23°C° 0 mm 7 mps 745 mmHg 45%
    03:00 +23°C° 0 mm 8 mps 745 mmHg 47%
    04:00 +23°C° 0 mm 8 mps 745 mmHg 51%
    05:00 +22°C° 0 mm 8 mps 745 mmHg 55%
    06:00 +22°C° 0 mm 9 mps 746 mmHg 60%
    07:00 +23°C° 0 mm 9 mps 746 mmHg 55%
    08:00 +24°C° 0 mm 10 mps 746 mmHg 50%
    09:00 +27°C° 0 mm 10 mps 746 mmHg 46%
    10:00 +27°C° 0 mm 11 mps 746 mmHg 44%
    11:00 +28°C° 0 mm 11 mps 746 mmHg 42%
    12:00 +28°C° 0 mm 11 mps 746 mmHg 40%
    13:00 +28°C° 0 mm 11 mps 746 mmHg 40%
    14:00 +28°C° 0 mm 11 mps 746 mmHg 40%
    15:00 +28°C° 0 mm 11 mps 746 mmHg 40%
    16:00 +28°C° 0 mm 10 mps 746 mmHg 44%
    17:00 +27°C° 0 mm 10 mps 746 mmHg 48%
    18:00 +26°C° 0 mm 9 mps 746 mmHg 53%
    19:00 +24°C° 0 mm 9 mps 747 mmHg 56%
    20:00 +24°C° 0 mm 8 mps 747 mmHg 59%
    21:00 +23°C° 0 mm 8 mps 748 mmHg 63%
    22:00 +23°C° 0 mm 8 mps 748 mmHg 65%
    23:00 +22°C° 0 mm 8 mps 748 mmHg 68%

    Pasado mañana, 5 Junio, Viernes

    Tiempo Temperatura Precipitaciones Viento Presión Humedad
    00:00 +22°C° 0 mm 7 mps 748 mmHg 71%
    01:00 +22°C° 0 mm 7 mps 748 mmHg 74%
    02:00 +21°C° 0 mm 7 mps 748 mmHg 77%
    03:00 +21°C° 0 mm 6 mps 748 mmHg 80%
    04:00 +21°C° 0 mm 6 mps 748 mmHg 78%
    05:00 +21°C° 0 mm 6 mps 748 mmHg 76%
    06:00 +21°C° 0 mm 6 mps 749 mmHg 74%
    07:00 +23°C° 0 mm 7 mps 749 mmHg 66%
    08:00 +24°C° 0 mm 7 mps 749 mmHg 57%
    09:00 +26°C° 0 mm 7 mps 750 mmHg 48%
    10:00 +27°C° 0 mm 7 mps 750 mmHg 48%
    11:00 +27°C° 0 mm 7 mps 750 mmHg 48%
    12:00 +28°C° 0 mm 7 mps 750 mmHg 48%
    13:00 +28°C° 0 mm 6 mps 749 mmHg 48%
    14:00 +28°C° 0 mm 6 mps 749 mmHg 47%
    15:00 +28°C° 0 mm 6 mps 749 mmHg 46%
    16:00 +28°C° 0 mm 5 mps 749 mmHg 47%
    17:00 +27°C° 0 mm 5 mps 749 mmHg 48%
    18:00 +27°C° 0 mm 4 mps 749 mmHg 48%
    19:00 +26°C° 0 mm 4 mps 749 mmHg 50%
    20:00 +26°C° 0 mm 4 mps 749 mmHg 51%
    21:00 +25°C° 0 mm 4 mps 749 mmHg 53%
    22:00 +25°C° 0 mm 4 mps 749 mmHg 53%
    23:00 +25°C° 0 mm 3 mps 749 mmHg 53%

    6 Junio, Sábado

    Tiempo Temperatura Precipitaciones Viento Presión Humedad
    00:00 +24°C° 0 mm 3 mps 749 mmHg 53%
    01:00 +24°C° 0 mm 3 mps 749 mmHg 53%
    02:00 +24°C° 0 mm 3 mps 749 mmHg 54%
    03:00 +24°C° 0 mm 3 mps 749 mmHg 55%
    04:00 +24°C° 0 mm 2 mps 749 mmHg 54%
    05:00 +25°C° 0 mm 2 mps 749 mmHg 53%
    06:00 +25°C° 0 mm 2 mps 749 mmHg 52%
    07:00 +26°C° 0 mm 2 mps 749 mmHg 47%
    08:00 +28°C° 0 mm 3 mps 749 mmHg 43%
    09:00 +29°C° 0 mm 3 mps 749 mmHg 38%
    10:00 +30°C° 0 mm 3 mps 749 mmHg 36%
    11:00 +31°C° 0 mm 3 mps 749 mmHg 34%
    12:00 +33°C° 0 mm 3 mps 749 mmHg 31%
    13:00 +34°C° 0 mm 3 mps 748 mmHg 32%
    14:00 +34°C° 0 mm 4 mps 748 mmHg 33%
    15:00 +34°C° 0 mm 4 mps 747 mmHg 33%
    16:00 +33°C° 0 mm 4 mps 747 mmHg 35%
    17:00 +31°C° 0 mm 3 mps 747 mmHg 37%
    18:00 +30°C° 0 mm 3 mps 747 mmHg 39%
    19:00 +28°C° 0.1 mm 4 mps 747 mmHg 44%
    20:00 +27°C° 0.1 mm 5 mps 748 mmHg 48%
    21:00 +26°C° 0.1 mm 6 mps 748 mmHg 53%
    22:00 +26°C° 0.1 mm 6 mps 748 mmHg 52%
    23:00 +24°C° 0.1 mm 6 mps 749 mmHg 52%

    7 Junio, Domingo

    Tiempo Temperatura Precipitaciones Viento Presión Humedad
    00:00 +24°C° 0.1 mm 6 mps 749 mmHg 51%
    01:00 +24°C° 0.1 mm 6 mps 749 mmHg 56%
    02:00 +23°C° 0.1 mm 6 mps 748 mmHg 60%
    03:00 +22°C° 0.1 mm 6 mps 748 mmHg 64%
    04:00 +22°C° 0 mm 6 mps 749 mmHg 63%
    05:00 +22°C° 0 mm 6 mps 749 mmHg 63%
    06:00 +22°C° 0 mm 6 mps 749 mmHg 62%
    07:00 +23°C° 0 mm 6 mps 749 mmHg 58%
    08:00 +23°C° 0 mm 7 mps 750 mmHg 54%
    09:00 +24°C° 0 mm 7 mps 750 mmHg 51%
    10:00 +26°C° 0 mm 8 mps 750 mmHg 47%
    11:00 +28°C° 0 mm 8 mps 750 mmHg 42%
    12:00 +29°C° 0 mm 8 mps 750 mmHg 38%
    13:00 +29°C° 0 mm 8 mps 750 mmHg 39%
    14:00 +29°C° 0 mm 7 mps 749 mmHg 40%
    15:00 +28°C° 0 mm 7 mps 749 mmHg 41%
    16:00 +28°C° 0 mm 7 mps 749 mmHg 43%
    17:00 +27°C° 0 mm 6 mps 749 mmHg 45%
    18:00 +27°C° 0 mm 6 mps 749 mmHg 47%
    19:00 +26°C° 0 mm 6 mps 749 mmHg 49%
    20:00 +25°C° 0 mm 5 mps 750 mmHg 52%
    21:00 +23°C° 0 mm 5 mps 750 mmHg 54%
    22:00 +23°C° 0 mm 5 mps 750 mmHg 55%
    23:00 +23°C° 0 mm 6 mps 750 mmHg 57%

    8 Junio, Lunes

    Tiempo Temperatura Precipitaciones Viento Presión Humedad
    00:00 +23°C° 0 mm 6 mps 750 mmHg 58%
    01:00 +22°C° 0 mm 6 mps 750 mmHg 59%
    02:00 +22°C° 0 mm 7 mps 749 mmHg 59%
    03:00 +21°C° 0 mm 7 mps 749 mmHg 60%
    04:00 +22°C° 0 mm 7 mps 749 mmHg 60%
    05:00 +22°C° 0 mm 6 mps 749 mmHg 59%
    06:00 +22°C° 0 mm 6 mps 749 mmHg 58%
    07:00 +23°C° 0 mm 6 mps 750 mmHg 57%
    08:00 +24°C° 0 mm 7 mps 750 mmHg 55%
    09:00 +26°C° 0 mm 7 mps 750 mmHg 53%
    10:00 +26°C° 0 mm 7 mps 750 mmHg 50%
    11:00 +27°C° 0 mm 7 mps 750 mmHg 48%
    12:00 +28°C° 0 mm 7 mps 751 mmHg 45%
    13:00 +28°C° 0 mm 7 mps 750 mmHg 45%
    14:00 +27°C° 0 mm 7 mps 750 mmHg 45%
    15:00 +27°C° 0 mm 6 mps 750 mmHg 45%
    16:00 +27°C° 0 mm 6 mps 750 mmHg 47%
    17:00 +26°C° 0 mm 5 mps 750 mmHg 48%
    18:00 +26°C° 0 mm 4 mps 750 mmHg 49%
    19:00 +25°C° 0 mm 4 mps 750 mmHg 53%
    20:00 +24°C° 0 mm 3 mps 751 mmHg 58%
    21:00 +23°C° 0 mm 2 mps 751 mmHg 62%
    22:00 +23°C° 0 mm 2 mps 751 mmHg 63%
    23:00 +23°C° 0 mm 2 mps 751 mmHg 65%
    Mostrar más